9A7DI-13 Weather Reports


time (UTC)temp
C
wind
direction
speed
KPH
gust
KPH
rain 1hr
cm
rain 24hr
cm
rain mn
cm
humidity
%
barometer
mb
20260906010638 18 0.0 0.0 0.00 0.00 0.00 69 1032.0
20260906005638 18 0.0 0.0 0.00 0.00 0.00 73 1031.9
20260906004638 18 0.0 0.0 0.00 0.00 0.00 71 1031.9
20260906003638 18 0.0 0.0 0.00 0.00 0.00 74 1031.8
20260906002638 18 0.0 0.0 0.00 0.00 0.00 75 1031.9
20260906001638 18 0.0 0.0 0.00 0.00 0.00 72 1031.9
20260906000638 18 0.0 0.0 0.00 0.00 0.00 74 1031.9
20260905235638 19 0.0 0.0 0.00 0.00 0.00 70 1031.9
20260905234638 19 0.0 0.0 0.00 0.00 0.00 70 1031.9
20260905233638 19 0.0 0.0 0.00 0.00 0.00 74 1031.8
20260905232638 19 0.0 0.0 0.00 0.00 0.00 74 1031.9
20260905231638 19 0.0 0.0 0.00 0.00 0.00 73 1031.8
20260905230638 19 0.0 0.0 0.00 0.00 0.00 72 1031.9
20260905225638 20 0.0 0.0 0.00 0.00 0.00 69 1031.7
20260905224638 20 0.0 0.0 0.00 0.00 0.00 68 1031.8
20260905223639 20 0.0 0.0 0.00 0.00 0.00 67 1031.7
20260905222639 20 0.0 0.0 0.00 0.00 0.00 70 1031.6
20260905221638 20 0.0 0.0 0.00 0.00 0.00 64 1031.6
20260905220638 20 0.0 0.0 0.00 0.00 0.00 66 1031.5
20260905215641 20 0.0 0.0 0.00 0.00 0.00 65 1031.4
20260905214639 20 0.0 0.0 0.00 0.00 0.00 64 1031.3
20260905213639 20 0.0 0.0 0.00 0.00 0.00 67 1031.4
20260905212639 20 0.0 0.0 0.00 0.00 0.00 65 1031.1
20260905211639 20 0.0 0.0 0.00 0.00 0.00 66 1031.0
20260905210639 20 0.0 0.0 0.00 0.00 0.00 67 1030.9
20260905205639 20 0.0 0.0 0.00 0.00 0.00 67 1030.7
20260905204639 20 0.0 0.0 0.00 0.00 0.00 67 1030.6
20260905203639 20 0.0 0.0 0.00 0.00 0.00 66 1030.5
20260905202639 19 0.0 0.0 0.00 0.00 0.00 68 1030.4
20260905201639 20 0.0 0.0 0.00 0.00 0.00 65 1030.3
20260905200639 20 0.0 0.0 0.00 0.00 0.00 61 1030.2
20260905195639 20 0.0 0.0 0.00 0.00 0.00 61 1030.0
20260905194639 20 0.0 0.0 0.00 0.00 0.00 61 1029.9
20260905193639 21 0.0 0.0 0.00 0.00 0.00 62 1029.9
20260905192639 21 0.0 0.0 0.00 0.00 0.00 62 1029.7
20260905191639 21 0.0 0.0 0.00 0.00 0.00 57 1029.6
20260905190639 21 0.0 0.0 0.00 0.00 0.00 61 1029.5
20260905185639 21 0.0 0.0 0.00 0.00 0.00 55 1029.4
20260905184639 21 0.0 0.0 0.00 0.00 0.00 56 1029.4
20260905183639 22 0.0 0.0 0.00 0.00 0.00 53 1029.2
20260905182639 22 0.0 0.0 0.00 0.00 0.00 54 1029.0
20260905181639 22 0.0 0.0 0.00 0.00 0.00 52 1029.0
20260905180639 21 0.0 0.0 0.00 0.00 0.00 55 1028.8
20260905175639 22 0.0 0.0 0.00 0.00 0.00 51 1028.6
20260905174639 23 0.0 0.0 0.00 0.00 0.00 48 1028.4
20260905173639 23 0.0 0.0 0.00 0.00 0.00 44 1028.2
20260905172639 23 0.0 0.0 0.00 0.00 0.00 43 1028.3
20260905171639 24 0.0 0.0 0.00 0.00 0.00 42 1028.2
20260905170639 24 0.0 0.0 0.00 0.00 0.00 40 1028.1
20260905165639 25 0.0 0.0 0.00 0.00 0.00 40 1028.0
20260905164639 25 0.0 0.0 0.00 0.00 0.00 39 1027.9
20260905163639 25 0.0 0.0 0.00 0.00 0.00 39 1027.7
20260905162639 25 0.0 0.0 0.00 0.00 0.00 38 1027.5
20260905161639 25 0.0 0.0 0.00 0.00 0.00 37 1027.4
20260905160639 26 0.0 0.0 0.00 0.00 0.00 37 1027.4
20260905155639 26 0.0 0.0 0.00 0.00 0.00 36 1027.2
20260905154639 27 0.0 0.0 0.00 0.00 0.00 36 1027.3
20260905153639 27 0.0 0.0 0.00 0.00 0.00 34 1027.1
20260905152639 27 0.0 0.0 0.00 0.00 0.00 34 1027.0
20260905151639 28 0.0 0.0 0.00 0.00 0.00 33 1026.9
20260905150639 28 0.0 0.0 0.00 0.00 0.00 33 1026.8
20260905145639 28 0.0 0.0 0.00 0.00 0.00 32 1026.8
20260905144641 29 0.0 0.0 0.00 0.00 0.00 31 1026.6
20260905143639 30 0.0 0.0 0.00 0.00 0.00 32 1026.6
20260905142639 30 0.0 0.0 0.00 0.00 0.00 30 1026.5
20260905141639 30 0.0 0.0 0.00 0.00 0.00 31 1026.4
20260905140639 30 0.0 0.0 0.00 0.00 0.00 31 1026.3
20260905135639 30 0.0 0.0 0.00 0.00 0.00 31 1026.2
20260905134639 30 0.0 0.0 0.00 0.00 0.00 32 1026.3
20260905133639 30 0.0 0.0 0.00 0.00 0.00 30 1026.3
20260905132639 30 0.0 0.0 0.00 0.00 0.00 31 1026.6
20260905131639 30 0.0 0.0 0.00 0.00 0.00 31 1026.5
20260905130639 30 0.0 0.0 0.00 0.00 0.00 30 1026.5
20260905125639 30 0.0 0.0 0.00 0.00 0.00 31 1026.7
20260905124639 30 0.0 0.0 0.00 0.00 0.00 30 1026.8
20260905123639 30 0.0 0.0 0.00 0.00 0.00 31 1026.9
20260905122639 30 0.0 0.0 0.00 0.00 0.00 31 1026.8
20260905121639 30 0.0 0.0 0.00 0.00 0.00 30 1026.7
20260905120639 30 0.0 0.0 0.00 0.00 0.00 32 1026.9
20260905115639 29 0.0 0.0 0.00 0.00 0.00 32 1026.9
20260905114639 30 0.0 0.0 0.00 0.00 0.00 31 1026.9
20260905113639 30 0.0 0.0 0.00 0.00 0.00 32 1026.7
20260905112639 30 0.0 0.0 0.00 0.00 0.00 32 1026.8
20260905111639 30 0.0 0.0 0.00 0.00 0.00 33 1026.7
20260905110639 30 0.0 0.0 0.00 0.00 0.00 33 1026.5
20260905105639 30 0.0 0.0 0.00 0.00 0.00 34 1026.6
20260905104639 30 0.0 0.0 0.00 0.00 0.00 35 1026.5
20260905103639 30 0.0 0.0 0.00 0.00 0.00 35 1026.3
20260905102639 31 0.0 0.0 0.00 0.00 0.00 35 1026.2
20260905101639 31 0.0 0.0 0.00 0.00 0.00 36 1026.2
20260905100639 31 0.0 0.0 0.00 0.00 0.00 36 1026.1
20260905095639 31 0.0 0.0 0.00 0.00 0.00 36 1026.1
20260905094639 31 0.0 0.0 0.00 0.00 0.00 37 1026.0
20260905093639 31 0.0 0.0 0.00 0.00 0.00 38 1026.1
20260905092640 31 0.0 0.0 0.00 0.00 0.00 37 1026.0
20260905091639 30 0.0 0.0 0.00 0.00 0.00 37 1025.9
20260905090640 30 0.0 0.0 0.00 0.00 0.00 37 1025.8
20260905085640 30 0.0 0.0 0.00 0.00 0.00 36 1025.6
20260905084640 31 0.0 0.0 0.00 0.00 0.00 35 1025.4
20260905083640 31 0.0 0.0 0.00 0.00 0.00 34 1025.3
20260905082640 31 0.0 0.0 0.00 0.00 0.00 33 1025.1
20260905081640 31 0.0 0.0 0.00 0.00 0.00 32 1025.0
20260905080640 31 0.0 0.0 0.00 0.00 0.00 32 1024.9
20260905075640 30 0.0 0.0 0.00 0.00 0.00 34 1024.7
20260905074640 30 0.0 0.0 0.00 0.00 0.00 35 1024.6
20260905073640 29 0.0 0.0 0.00 0.00 0.00 36 1024.7
20260905072640 29 0.0 0.0 0.00 0.00 0.00 35 1024.6
20260905071640 28 0.0 0.0 0.00 0.00 0.00 37 1024.5
20260905070640 28 0.0 0.0 0.00 0.00 0.00 39 1024.4
20260905065640 27 0.0 0.0 0.00 0.00 0.00 45 1024.3
20260905064640 25 0.0 0.0 0.00 0.00 0.00 51 1024.4
20260905063640 25 0.0 0.0 0.00 0.00 0.00 56 1024.3
20260905062640 23 0.0 0.0 0.00 0.00 0.00 58 1024.2
20260905061640 23 0.0 0.0 0.00 0.00 0.00 62 1024.2
20260905060640 22 0.0 0.0 0.00 0.00 0.00 63 1024.2
20260905055640 21 0.0 0.0 0.00 0.00 0.00 66 1024.1
20260905054640 20 0.0 0.0 0.00 0.00 0.00 71 1024.1
20260905053640 19 0.0 0.0 0.00 0.00 0.00 74 1024.0
20260905052640 18 0.0 0.0 0.00 0.00 0.00 78 1023.8
20260905051640 16 0.0 0.0 0.00 0.00 0.00 83 1023.7
20260905050640 16 0.0 0.0 0.00 0.00 0.00 85 1023.6
20260905045640 15 0.0 0.0 0.00 0.00 0.00 83 1023.7
20260905044640 15 0.0 0.0 0.00 0.00 0.00 82 1023.7
20260905043640 15 0.0 0.0 0.00 0.00 0.00 82 1023.7
20260905042640 15 0.0 0.0 0.00 0.00 0.00 79 1023.5
20260905041640 15 0.0 0.0 0.00 0.00 0.00 83 1023.5
20260905040640 15 0.0 0.0 0.00 0.00 0.00 84 1023.5
20260905035640 15 0.0 0.0 0.00 0.00 0.00 82 1023.4
20260905034640 15 0.0 0.0 0.00 0.00 0.00 81 1023.4
20260905033640 15 0.0 0.0 0.00 0.00 0.00 82 1023.3
20260905032640 15 0.0 0.0 0.00 0.00 0.00 82 1023.2
20260905031640 15 0.0 0.0 0.00 0.00 0.00 81 1023.3
20260905030640 15 0.0 0.0 0.00 0.00 0.00 79 1023.3
20260905025640 16 0.0 0.0 0.00 0.00 0.00 78 1023.3
20260905024640 16 0.0 0.0 0.00 0.00 0.00 79 1023.3
20260905023640 16 0.0 0.0 0.00 0.00 0.00 78 1023.3
20260905022640 16 0.0 0.0 0.00 0.00 0.00 77 1023.3
20260905021640 16 0.0 0.0 0.00 0.00 0.00 77 1023.3
20260905020640 16 0.0 0.0 0.00 0.00 0.00 78 1023.4
20260905015640 16 0.0 0.0 0.00 0.00 0.00 80 1023.5
20260905014640 16 0.0 0.0 0.00 0.00 0.00 79 1023.5
20260905013640 16 0.0 0.0 0.00 0.00 0.00 81 1023.5
20260905012640 16 0.0 0.0 0.00 0.00 0.00 78 1023.5
20260905011640 16 0.0 0.0 0.00 0.00 0.00 77 1023.5